#Datum;Uhrzeit;WR;Pac;DaySum;Status;WR;Pac;DaySum;Status;Pdc1;Udc;Temp;WR;Pac;DaySum;Status;Pdc1;Udc;Temp;WR;Pac;DaySum;Status;Pdc1;Udc;Temp;WR;Pac;DaySum;Status;Pdc1;Pdc2;Udc1;Udc2;Temp;WR;Pac;DaySum;Status;Pdc1;Pdc2;Udc1;Udc2;Temp;WR;Pac;DaySum;Status;Pdc1;Udc;Temp;WR;Pac;DaySum;Status;Pdc1;Udc;Temp;WR;Pac;DaySum;Status;Pdc1;Udc;Temp
18.11.17;23:55:00;1;181;10398;0;2;0;1702;0;0;0;0;3;0;995;0;0;0;0;4;0;1335;0;0;0;0;5;0;3589;0;0;0;0;0;0;6;0;1139;0;0;0;0;0;0;7;0;1637;0;0;0;0;8;0;1663;0;0;0;0;9;0;844;0;0;0;0
18.11.17;23:50:00;1;181;10383;0;2;0;1702;0;0;0;0;3;0;995;0;0;0;0;4;0;1335;0;0;0;0;5;0;3589;0;0;0;0;0;0;6;0;1139;0;0;0;0;0;0;7;0;1637;0;0;0;0;8;0;1663;0;0;0;0;9;0;844;0;0;0;0
18.11.17;23:45:00;1;181;10368;0;2;0;1702;0;0;0;0;3;0;995;0;0;0;0;4;0;1335;0;0;0;0;5;0;3589;0;0;0;0;0;0;6;0;1139;0;0;0;0;0;0;7;0;1637;0;0;0;0;8;0;1663;0;0;0;0;9;0;844;0;0;0;0
18.11.17;23:40:00;1;197;10352;0;2;0;1702;0;0;0;0;3;0;995;0;0;0;0;4;0;1335;0;0;0;0;5;0;3589;0;0;0;0;0;0;6;0;1139;0;0;0;0;0;0;7;0;1637;0;0;0;0;8;0;1663;0;0;0;0;9;0;844;0;0;0;0
18.11.17;23:35:00;1;223;10336;0;2;0;1702;0;0;0;0;3;0;995;0;0;0;0;4;0;1335;0;0;0;0;5;0;3589;0;0;0;0;0;0;6;0;1139;0;0;0;0;0;0;7;0;1637;0;0;0;0;8;0;1663;0;0;0;0;9;0;844;0;0;0;0
18.11.17;23:30:00;1;224;10317;0;2;0;1702;0;0;0;0;3;0;995;0;0;0;0;4;0;1335;0;0;0;0;5;0;3589;0;0;0;0;0;0;6;0;1139;0;0;0;0;0;0;7;0;1637;0;0;0;0;8;0;1663;0;0;0;0;9;0;844;0;0;0;0
18.11.17;23:25:00;1;220;10299;0;2;0;1702;0;0;0;0;3;0;995;0;0;0;0;4;0;1335;0;0;0;0;5;0;3589;0;0;0;0;0;0;6;0;1139;0;0;0;0;0;0;7;0;1637;0;0;0;0;8;0;1663;0;0;0;0;9;0;844;0;0;0;0
18.11.17;23:20:00;1;221;10280;0;2;0;1702;0;0;0;0;3;0;995;0;0;0;0;4;0;1335;0;0;0;0;5;0;3589;0;0;0;0;0;0;6;0;1139;0;0;0;0;0;0;7;0;1637;0;0;0;0;8;0;1663;0;0;0;0;9;0;844;0;0;0;0
18.11.17;23:15:00;1;247;10262;0;2;0;1702;0;0;0;0;3;0;995;0;0;0;0;4;0;1335;0;0;0;0;5;0;3589;0;0;0;0;0;0;6;0;1139;0;0;0;0;0;0;7;0;1637;0;0;0;0;8;0;1663;0;0;0;0;9;0;844;0;0;0;0
18.11.17;23:10:00;1;248;10241;0;2;0;1702;0;0;0;0;3;0;995;0;0;0;0;4;0;1335;0;0;0;0;5;0;3589;0;0;0;0;0;0;6;0;1139;0;0;0;0;0;0;7;0;1637;0;0;0;0;8;0;1663;0;0;0;0;9;0;844;0;0;0;0
18.11.17;23:05:00;1;249;10220;0;2;0;1702;0;0;0;0;3;0;995;0;0;0;0;4;0;1335;0;0;0;0;5;0;3589;0;0;0;0;0;0;6;0;1139;0;0;0;0;0;0;7;0;1637;0;0;0;0;8;0;1663;0;0;0;0;9;0;844;0;0;0;0
18.11.17;23:00:00;1;250;10199;0;2;0;1702;0;0;0;0;3;0;995;0;0;0;0;4;0;1335;0;0;0;0;5;0;3589;0;0;0;0;0;0;6;0;1139;0;0;0;0;0;0;7;0;1637;0;0;0;0;8;0;1663;0;0;0;0;9;0;844;0;0;0;0
18.11.17;22:55:00;1;251;10178;0;2;0;1702;0;0;0;0;3;0;995;0;0;0;0;4;0;1335;0;0;0;0;5;0;3589;2;0;0;0;0;0;6;0;1139;2;0;0;0;0;0;7;0;1637;0;0;0;0;8;0;1663;0;0;0;0;9;0;844;0;0;0;0
18.11.17;22:50:00;1;249;10157;0;2;0;1702;0;0;0;0;3;0;995;0;0;0;0;4;0;1335;0;0;0;0;5;0;3589;2;0;0;0;0;0;6;0;1139;2;0;0;0;0;0;7;0;1637;0;0;0;0;8;0;1663;0;0;0;0;9;0;844;0;0;0;0
18.11.17;22:45:00;1;233;10137;0;2;0;1702;0;0;0;0;3;0;995;0;0;0;0;4;0;1335;0;0;0;0;5;0;3589;2;0;0;0;0;0;6;0;1139;0;0;0;0;0;0;7;0;1637;0;0;0;0;8;0;1663;0;0;0;0;9;0;844;0;0;0;0
18.11.17;22:40:00;1;209;10117;0;2;0;1702;0;0;0;0;3;0;995;0;0;0;0;4;0;1335;0;0;0;0;5;0;3589;2;0;0;0;0;0;6;0;1139;0;0;0;0;0;0;7;0;1637;0;0;0;0;8;0;1663;0;0;0;0;9;0;844;0;0;0;0
18.11.17;22:35:00;1;225;10100;0;2;0;1702;0;0;0;0;3;0;995;0;0;0;0;4;0;1335;0;0;0;0;5;0;3589;2;0;0;0;0;0;6;0;1139;0;0;0;0;0;0;7;0;1637;0;0;0;0;8;0;1663;0;0;0;0;9;0;844;0;0;0;0
18.11.17;22:30:00;1;226;10081;0;2;0;1702;0;0;0;0;3;0;995;0;0;0;0;4;0;1335;0;0;0;0;5;0;3589;2;0;0;0;0;0;6;0;1139;0;0;0;0;0;0;7;0;1637;0;0;0;0;8;0;1663;0;0;0;0;9;0;844;0;0;0;0
18.11.17;22:25:00;1;201;10062;0;2;0;1702;0;0;0;0;3;0;995;0;0;0;0;4;0;1335;0;0;0;0;5;0;3589;2;0;0;0;0;0;6;0;1139;0;0;0;0;0;0;7;0;1637;0;0;0;0;8;0;1663;0;0;0;0;9;0;844;0;0;0;0
18.11.17;22:20:00;1;184;10045;0;2;0;1702;0;0;0;0;3;0;995;0;0;0;0;4;0;1335;0;0;0;0;5;0;3589;2;0;0;0;0;0;6;0;1139;0;0;0;0;0;0;7;0;1637;0;0;0;0;8;0;1663;0;0;0;0;9;0;844;0;0;0;0
18.11.17;22:15:00;1;184;10029;0;2;0;1702;0;0;0;0;3;0;995;0;0;0;0;4;0;1335;0;0;0;0;5;0;3589;2;0;0;0;0;0;6;0;1139;0;0;0;0;0;0;7;0;1637;0;0;0;0;8;0;1663;0;0;0;0;9;0;844;0;0;0;0
18.11.17;22:10:00;1;183;10014;0;2;0;1702;0;0;0;0;3;0;995;0;0;0;0;4;0;1335;0;0;0;0;5;0;3589;2;0;0;0;0;0;6;0;1139;0;0;0;0;0;0;7;0;1637;0;0;0;0;8;0;1663;0;0;0;0;9;0;844;0;0;0;0
18.11.17;22:05:00;1;188;9998;0;2;0;1702;0;0;0;0;3;0;995;0;0;0;0;4;0;1335;0;0;0;0;5;0;3589;2;0;0;0;0;0;6;0;1139;0;0;0;0;0;0;7;0;1637;0;0;0;0;8;0;1663;0;0;0;0;9;0;844;0;0;0;0
18.11.17;22:00:00;1;191;9983;0;2;0;1702;0;0;0;0;3;0;995;0;0;0;0;4;0;1335;0;0;0;0;5;0;3589;2;0;0;0;0;0;6;0;1139;0;0;0;0;0;0;7;0;1637;0;0;0;0;8;0;1663;0;0;0;0;9;0;844;0;0;0;0
18.11.17;21:55:00;1;191;9967;0;2;0;1702;0;0;0;0;3;0;995;0;0;0;0;4;0;1335;0;0;0;0;5;0;3589;2;0;0;0;0;0;6;0;1139;0;0;0;0;0;0;7;0;1637;0;0;0;0;8;0;1663;0;0;0;0;9;0;844;0;0;0;0
18.11.17;21:50:00;1;191;9951;0;2;0;1702;0;0;0;0;3;0;995;0;0;0;0;4;0;1335;0;0;0;0;5;0;3589;2;0;0;0;0;0;6;0;1139;0;0;0;0;0;0;7;0;1637;0;0;0;0;8;0;1663;0;0;0;0;9;0;844;0;0;0;0
18.11.17;21:45:00;1;195;9935;0;2;0;1702;0;0;0;0;3;0;995;0;0;0;0;4;0;1335;0;0;0;0;5;0;3589;2;0;0;0;0;0;6;0;1139;0;0;0;0;0;0;7;0;1637;0;0;0;0;8;0;1663;0;0;0;0;9;0;844;0;0;0;0
18.11.17;21:40:00;1;233;9918;0;2;0;1702;0;0;0;0;3;0;995;0;0;0;0;4;0;1335;0;0;0;0;5;0;3589;2;0;0;0;0;0;6;0;1139;0;0;0;0;0;0;7;0;1637;0;0;0;0;8;0;1663;0;0;0;0;9;0;844;0;0;0;0
18.11.17;21:35:00;1;234;9899;0;2;0;1702;0;0;0;0;3;0;995;0;0;0;0;4;0;1335;0;0;0;0;5;0;3589;2;0;0;0;0;0;6;0;1139;0;0;0;0;0;0;7;0;1637;0;0;0;0;8;0;1663;0;0;0;0;9;0;844;0;0;0;0
18.11.17;21:30:00;1;248;9879;0;2;0;1702;0;0;0;0;3;0;995;0;0;0;0;4;0;1335;0;0;0;0;5;0;3589;2;0;0;0;0;0;6;0;1139;0;0;0;0;0;0;7;0;1637;0;0;0;0;8;0;1663;0;0;0;0;9;0;844;0;0;0;0
18.11.17;21:25:00;1;194;9859;0;2;0;1702;0;0;0;0;3;0;995;0;0;0;0;4;0;1335;0;0;0;0;5;0;3589;2;0;0;0;0;0;6;0;1139;0;0;0;0;0;0;7;0;1637;0;0;0;0;8;0;1663;0;0;0;0;9;0;844;0;0;0;0
18.11.17;21:20:00;1;194;9843;0;2;0;1702;0;0;0;0;3;0;995;0;0;0;0;4;0;1335;0;0;0;0;5;0;3589;2;0;0;0;0;0;6;0;1139;0;0;0;0;0;0;7;0;1637;0;0;0;0;8;0;1663;0;0;0;0;9;0;844;0;0;0;0
18.11.17;21:15:00;1;296;9826;0;2;0;1702;0;0;0;0;3;0;995;0;0;0;0;4;0;1335;0;0;0;0;5;0;3589;2;0;0;0;0;0;6;0;1139;0;0;0;0;0;0;7;0;1637;0;0;0;0;8;0;1663;0;0;0;0;9;0;844;0;0;0;0
18.11.17;21:10:00;1;421;9799;0;2;0;1702;0;0;0;0;3;0;995;0;0;0;0;4;0;1335;0;0;0;0;5;0;3589;2;0;0;0;0;0;6;0;1139;0;0;0;0;0;0;7;0;1637;0;0;0;0;8;0;1663;0;0;0;0;9;0;844;0;0;0;0
18.11.17;21:05:00;1;549;9765;0;2;0;1702;0;0;0;0;3;0;995;0;0;0;0;4;0;1335;0;0;0;0;5;0;3589;2;0;0;0;0;0;6;0;1139;0;0;0;0;0;0;7;0;1637;0;0;0;0;8;0;1663;0;0;0;0;9;0;844;0;0;0;0
18.11.17;21:00:00;1;686;9717;0;2;0;1702;0;0;0;0;3;0;995;0;0;0;0;4;0;1335;0;0;0;0;5;0;3589;2;0;0;0;0;0;6;0;1139;0;0;0;0;0;0;7;0;1637;0;0;0;0;8;0;1663;0;0;0;0;9;0;844;0;0;0;0
18.11.17;20:55:00;1;663;9656;0;2;0;1702;0;0;0;0;3;0;995;0;0;0;0;4;0;1335;0;0;0;0;5;0;3589;2;0;0;0;0;0;6;0;1139;0;0;0;0;0;0;7;0;1637;0;0;0;0;8;0;1663;0;0;0;0;9;0;844;0;0;0;0
18.11.17;20:50:00;1;655;9601;0;2;0;1702;0;0;0;0;3;0;995;0;0;0;0;4;0;1335;0;0;0;0;5;0;3589;2;0;0;0;0;0;6;0;1139;0;0;0;0;0;0;7;0;1637;0;0;0;0;8;0;1663;0;0;0;0;9;0;844;0;0;0;0
18.11.17;20:45:00;1;687;9547;0;2;0;1702;0;0;0;0;3;0;995;0;0;0;0;4;0;1335;0;0;0;0;5;0;3589;2;0;0;0;0;0;6;0;1139;0;0;0;0;0;0;7;0;1637;0;0;0;0;8;0;1663;0;0;0;0;9;0;844;0;0;0;0
18.11.17;20:40:00;1;690;9489;0;2;0;1702;0;0;0;0;3;0;995;0;0;0;0;4;0;1335;0;0;0;0;5;0;3589;2;0;0;0;0;0;6;0;1139;0;0;0;0;0;0;7;0;1637;0;0;0;0;8;0;1663;0;0;0;0;9;0;844;0;0;0;0
18.11.17;20:35:00;1;723;9416;0;2;0;1702;0;0;0;0;3;0;995;0;0;0;0;4;0;1335;0;0;0;0;5;0;3589;2;0;0;0;0;0;6;0;1139;0;0;0;0;0;0;7;0;1637;0;0;0;0;8;0;1663;0;0;0;0;9;0;844;0;0;0;0
18.11.17;20:30:00;1;640;9355;0;2;0;1702;0;0;0;0;3;0;995;0;0;0;0;4;0;1335;0;0;0;0;5;0;3589;2;0;0;0;0;0;6;0;1139;0;0;0;0;0;0;7;0;1637;0;0;0;0;8;0;1663;0;0;0;0;9;0;844;0;0;0;0
18.11.17;20:25:00;1;576;9297;0;2;0;1702;0;0;0;0;3;0;995;0;0;0;0;4;0;1335;0;0;0;0;5;0;3589;2;0;0;0;0;0;6;0;1139;0;0;0;0;0;0;7;0;1637;0;0;0;0;8;0;1663;0;0;0;0;9;0;844;0;0;0;0
18.11.17;20:20:00;1;594;9249;0;2;0;1702;0;0;0;0;3;0;995;0;0;0;0;4;0;1335;0;0;0;0;5;0;3589;2;0;0;0;0;0;6;0;1139;0;0;0;0;0;0;7;0;1637;0;0;0;0;8;0;1663;0;0;0;0;9;0;844;0;0;0;0
18.11.17;20:15:00;1;573;9197;0;2;0;1702;0;0;0;0;3;0;995;0;0;0;0;4;0;1335;0;0;0;0;5;0;3589;2;0;0;0;0;0;6;0;1139;0;0;0;0;0;0;7;0;1637;0;0;0;0;8;0;1663;0;0;0;0;9;0;844;0;0;0;0
18.11.17;20:10:00;1;998;9149;0;2;0;1702;0;0;0;0;3;0;995;0;0;0;0;4;0;1335;0;0;0;0;5;0;3589;2;0;0;0;0;0;6;0;1139;0;0;0;0;0;0;7;0;1637;0;0;0;0;8;0;1663;0;0;0;0;9;0;844;0;0;0;0
18.11.17;20:05:00;1;607;9083;0;2;0;1702;0;0;0;0;3;0;995;0;0;0;0;4;0;1335;0;0;0;0;5;0;3589;2;0;0;0;0;0;6;0;1139;0;0;0;0;0;0;7;0;1637;0;0;0;0;8;0;1663;0;0;0;0;9;0;844;0;0;0;0
18.11.17;20:00:00;1;718;9032;0;2;0;1702;0;0;0;0;3;0;995;0;0;0;0;4;0;1335;0;0;0;0;5;0;3589;2;0;0;0;0;0;6;0;1139;0;0;0;0;0;0;7;0;1637;0;0;0;0;8;0;1663;0;0;0;0;9;0;844;0;0;0;0
18.11.17;19:55:00;1;636;8963;0;2;0;1702;0;0;0;0;3;0;995;0;0;0;0;4;0;1335;0;0;0;0;5;0;3589;2;0;0;0;0;0;6;0;1139;0;0;0;0;0;0;7;0;1637;0;0;0;0;8;0;1663;0;0;0;0;9;0;844;0;0;0;0
18.11.17;19:50:00;1;621;8908;0;2;0;1702;0;0;0;0;3;0;995;0;0;0;0;4;0;1335;0;0;0;0;5;0;3589;2;0;0;0;0;0;6;0;1139;0;0;0;0;0;0;7;0;1637;0;0;0;0;8;0;1663;0;0;0;0;9;0;844;0;0;0;0
18.11.17;19:45:00;1;624;8856;0;2;0;1702;0;0;0;0;3;0;995;0;0;0;0;4;0;1335;0;0;0;0;5;0;3589;2;0;0;0;0;0;6;0;1139;0;0;0;0;0;0;7;0;1637;0;0;0;0;8;0;1663;0;0;0;0;9;0;844;0;0;0;0
18.11.17;19:40:00;1;608;8805;0;2;0;1702;0;0;0;0;3;0;995;0;0;0;0;4;0;1335;0;0;0;0;5;0;3589;2;0;0;0;0;0;6;0;1139;0;0;0;0;0;0;7;0;1637;0;0;0;0;8;0;1663;0;0;0;0;9;0;844;0;0;0;0
18.11.17;19:35:00;1;1000;8754;0;2;0;1702;0;0;0;0;3;0;995;0;0;0;0;4;0;1335;0;0;0;0;5;0;3589;2;0;0;0;0;0;6;0;1139;0;0;0;0;0;0;7;0;1637;0;0;0;0;8;0;1663;0;0;0;0;9;0;844;0;0;0;0
18.11.17;19:30:00;1;628;8691;0;2;0;1702;0;0;0;0;3;0;995;0;0;0;0;4;0;1335;0;0;0;0;5;0;3589;2;0;0;0;0;0;6;0;1139;0;0;0;0;0;0;7;0;1637;0;0;0;0;8;0;1663;0;0;0;0;9;0;844;0;0;0;0
18.11.17;19:25:00;1;2213;8643;0;2;0;1702;0;0;0;0;3;0;995;0;0;0;0;4;0;1335;0;0;0;0;5;0;3589;2;0;0;0;0;0;6;0;1139;0;0;0;0;0;0;7;0;1637;0;0;0;0;8;0;1663;0;0;0;0;9;0;844;0;0;0;0
18.11.17;19:20:00;1;2153;8440;0;2;0;1702;0;0;0;0;3;0;995;0;0;0;0;4;0;1335;0;0;0;0;5;0;3589;2;0;0;0;0;0;6;0;1139;0;0;0;0;0;0;7;0;1637;0;0;0;0;8;0;1663;0;0;0;0;9;0;844;0;0;0;0
18.11.17;19:15:00;1;190;8265;0;2;0;1702;0;0;0;0;3;0;995;0;0;0;0;4;0;1335;0;0;0;0;5;0;3589;2;0;0;0;0;0;6;0;1139;0;0;0;0;0;0;7;0;1637;0;0;0;0;8;0;1663;0;0;0;0;9;0;844;0;0;0;0
18.11.17;19:10:00;1;190;8249;0;2;0;1702;0;0;0;0;3;0;995;0;0;0;0;4;0;1335;0;0;0;0;5;0;3589;2;0;0;0;0;0;6;0;1139;0;0;0;0;0;0;7;0;1637;0;0;0;0;8;0;1663;0;0;0;0;9;0;844;0;0;0;0
18.11.17;19:05:00;1;190;8234;0;2;0;1702;0;0;0;0;3;0;995;0;0;0;0;4;0;1335;0;0;0;0;5;0;3589;2;0;0;0;0;0;6;0;1139;0;0;0;0;0;0;7;0;1637;0;0;0;0;8;0;1663;0;0;0;0;9;0;844;0;0;0;0
18.11.17;19:00:00;1;190;8218;0;2;0;1702;0;0;0;0;3;0;995;0;0;0;0;4;0;1335;0;0;0;0;5;0;3589;2;0;0;0;0;0;6;0;1139;0;0;0;0;0;0;7;0;1637;0;0;0;0;8;0;1663;0;0;0;0;9;0;844;0;0;0;0
18.11.17;18:55:00;1;190;8202;0;2;0;1702;0;0;0;0;3;0;995;0;0;0;0;4;0;1335;0;0;0;0;5;0;3589;2;0;0;0;0;0;6;0;1139;0;0;0;0;0;0;7;0;1637;0;0;0;0;8;0;1663;0;0;0;0;9;0;844;0;0;0;0
18.11.17;18:50:00;1;211;8186;0;2;0;1702;0;0;0;0;3;0;995;0;0;0;0;4;0;1335;0;0;0;0;5;0;3589;2;0;0;0;0;0;6;0;1139;0;0;0;0;0;0;7;0;1637;0;0;0;0;8;0;1663;0;0;0;0;9;0;844;0;0;0;0
18.11.17;18:45:00;1;281;8167;0;2;0;1702;0;0;0;0;3;0;995;0;0;0;0;4;0;1335;0;0;0;0;5;0;3589;2;0;0;0;0;0;6;0;1139;0;0;0;0;0;0;7;0;1637;0;0;0;0;8;0;1663;0;0;0;0;9;0;844;0;0;0;0
18.11.17;18:40:00;1;309;8144;0;2;0;1702;0;0;0;0;3;0;995;0;0;0;0;4;0;1335;0;0;0;0;5;0;3589;2;0;0;0;0;0;6;0;1139;0;0;0;0;0;0;7;0;1637;0;0;0;0;8;0;1663;0;0;0;0;9;0;844;0;0;0;0
18.11.17;18:35:00;1;337;8117;0;2;0;1702;0;0;0;0;3;0;995;0;0;0;0;4;0;1335;0;0;0;0;5;0;3589;2;0;0;0;0;0;6;0;1139;0;0;0;0;0;0;7;0;1637;0;0;0;0;8;0;1663;0;0;0;0;9;0;844;0;0;0;0
18.11.17;18:30:00;1;347;8089;0;2;0;1702;0;0;0;0;3;0;995;0;0;0;0;4;0;1335;0;0;0;0;5;0;3589;2;0;0;0;0;0;6;0;1139;0;0;0;0;0;0;7;0;1637;0;0;0;0;8;0;1663;0;0;0;0;9;0;844;0;0;0;0
18.11.17;18:25:00;1;558;8057;0;2;0;1702;0;0;0;0;3;0;995;0;0;0;0;4;0;1335;0;0;0;0;5;0;3589;2;0;0;0;0;0;6;0;1139;0;0;0;0;0;0;7;0;1637;0;0;0;0;8;0;1663;0;0;0;0;9;0;844;0;0;0;0
18.11.17;18:20:00;1;1347;8011;0;2;0;1702;0;0;0;0;3;0;995;0;0;0;0;4;0;1335;0;0;0;0;5;0;3589;2;0;0;0;0;0;6;0;1139;0;0;0;0;0;0;7;0;1637;0;0;0;0;8;0;1663;0;0;0;0;9;0;844;0;0;0;0
18.11.17;18:15:00;1;420;7901;0;2;0;1702;0;0;0;0;3;0;995;0;0;0;0;4;0;1335;0;0;0;0;5;0;3589;2;0;0;0;0;0;6;0;1139;0;0;0;0;0;0;7;0;1637;0;0;0;0;8;0;1663;0;0;0;0;9;0;844;0;0;0;0
18.11.17;18:10:00;1;722;7866;0;2;0;1702;0;0;0;0;3;0;995;0;0;0;0;4;0;1335;0;0;0;0;5;0;3589;2;0;0;0;0;0;6;0;1139;0;0;0;0;0;0;7;0;1637;0;0;0;0;8;0;1663;0;0;0;0;9;0;844;0;0;0;0
18.11.17;18:05:00;1;655;7804;0;2;0;1702;0;0;0;0;3;0;995;0;0;0;0;4;0;1335;0;0;0;0;5;0;3589;2;0;0;0;0;0;6;0;1139;0;0;0;0;0;0;7;0;1637;0;0;0;0;8;0;1663;0;0;0;0;9;0;844;0;0;0;0
18.11.17;18:00:00;1;591;7750;0;2;0;1702;0;0;0;0;3;0;995;0;0;0;0;4;0;1335;0;0;0;0;5;0;3589;2;0;0;0;0;0;6;0;1139;0;0;0;0;0;0;7;0;1637;0;0;0;0;8;0;1663;0;0;0;0;9;0;844;0;0;0;0
18.11.17;17:55:00;1;508;7699;0;2;0;1702;0;0;0;0;3;0;995;0;0;0;0;4;0;1335;0;0;0;0;5;0;3589;2;0;0;0;0;0;6;0;1139;0;0;0;0;0;0;7;0;1637;0;0;0;0;8;0;1663;0;0;0;0;9;0;844;0;0;0;0
18.11.17;17:50:00;1;406;7658;0;2;0;1702;0;0;0;0;3;0;995;0;0;0;0;4;0;1335;0;0;0;0;5;0;3589;2;0;0;0;0;0;6;0;1139;0;0;0;0;0;0;7;0;1637;0;0;0;0;8;0;1663;0;0;0;0;9;0;844;0;0;0;0
18.11.17;17:45:00;1;397;7623;0;2;0;1702;0;0;0;0;3;0;995;0;0;0;0;4;0;1335;0;0;0;0;5;0;3589;2;0;0;0;0;0;6;0;1139;0;0;0;0;0;0;7;0;1637;0;0;0;0;8;0;1663;0;0;0;0;9;0;844;0;0;0;0
18.11.17;17:40:00;1;382;7590;0;2;0;1702;0;0;0;0;3;0;995;0;0;0;0;4;0;1335;0;0;0;0;5;0;3589;2;0;0;0;0;0;6;0;1139;0;0;0;0;0;0;7;0;1637;0;0;0;0;8;0;1663;0;0;0;0;9;0;844;0;0;0;0
18.11.17;17:35:00;1;360;7559;0;2;0;1702;0;0;0;0;3;0;995;0;0;0;0;4;0;1335;0;0;0;0;5;0;3589;2;0;0;0;0;0;6;0;1139;0;0;0;0;0;0;7;0;1637;0;0;0;0;8;0;1663;0;0;0;0;9;0;844;0;0;0;0
18.11.17;17:30:00;1;337;7529;0;2;0;1702;0;0;0;0;3;0;995;0;0;0;0;4;0;1335;0;0;0;0;5;0;3589;2;0;0;0;0;0;6;0;1139;0;0;0;0;0;0;7;0;1637;0;0;0;0;8;0;1663;0;0;0;0;9;0;844;0;0;0;0
18.11.17;17:25:00;1;337;7501;0;2;0;1702;0;0;0;0;3;0;995;0;0;0;0;4;0;1335;0;0;0;0;5;0;3589;2;0;0;0;0;0;6;0;1139;0;0;0;0;0;0;7;0;1637;0;0;0;0;8;0;1663;0;0;0;0;9;0;844;0;0;0;0
18.11.17;17:20:00;1;337;7472;0;2;0;1702;0;0;0;0;3;0;995;0;0;0;0;4;0;1335;0;0;0;0;5;0;3589;2;0;0;0;0;0;6;0;1139;0;0;0;0;0;0;7;0;1637;0;0;0;0;8;0;1663;0;0;0;0;9;0;844;0;0;0;0
18.11.17;17:15:00;1;331;7444;0;2;0;1702;0;0;0;0;3;0;995;0;0;0;0;4;0;1335;0;0;0;0;5;0;3589;2;0;0;0;0;0;6;0;1139;0;0;0;0;0;0;7;0;1637;0;0;0;0;8;0;1663;0;0;0;0;9;0;844;0;0;0;0
18.11.17;17:10:00;1;343;7417;0;2;0;1702;0;0;0;0;3;0;995;0;0;0;0;4;0;1335;0;0;0;0;5;0;3589;2;0;0;0;0;0;6;0;1139;0;0;0;0;0;0;7;0;1637;0;0;0;0;8;0;1663;0;0;0;0;9;0;844;0;0;0;0
18.11.17;17:05:00;1;332;7388;0;2;0;1702;0;0;0;0;3;0;995;0;0;0;0;4;0;1335;0;0;0;0;5;0;3589;2;0;0;0;0;0;6;0;1139;0;0;0;0;0;0;7;0;1637;0;0;0;0;8;0;1663;0;0;0;0;9;0;844;0;0;0;0
18.11.17;17:00:00;1;336;7360;0;2;0;1702;0;0;0;0;3;0;995;0;0;0;0;4;0;1335;0;0;0;0;5;0;3589;2;0;0;0;0;0;6;0;1139;0;0;0;0;0;0;7;0;1637;0;0;0;0;8;0;1663;0;0;0;0;9;0;844;0;0;0;0
18.11.17;16:55:00;1;335;7332;0;2;0;1702;0;0;0;0;3;0;995;0;0;0;0;4;0;1335;0;0;0;0;5;0;3589;2;0;0;0;0;0;6;0;1139;0;0;0;0;0;0;7;0;1637;0;0;0;0;8;0;1663;0;0;0;0;9;0;844;0;0;0;0
18.11.17;16:50:00;1;380;7304;0;2;0;1702;0;0;0;0;3;0;995;0;0;0;0;4;0;1335;0;0;0;0;5;0;3589;2;0;0;0;0;0;6;0;1139;0;0;0;0;0;0;7;0;1637;0;0;0;0;8;0;1663;0;0;0;0;9;0;844;0;0;0;0
18.11.17;16:45:00;1;386;7272;0;2;0;1702;0;0;0;0;3;0;995;0;0;0;0;4;0;1335;0;0;0;0;5;0;3589;2;0;0;0;0;0;6;0;1139;0;0;0;0;0;0;7;0;1637;0;0;0;0;8;0;1663;0;0;0;0;9;0;844;0;0;0;0
18.11.17;16:40:00;1;397;7240;0;2;0;1702;0;0;0;0;3;0;995;0;0;0;0;4;0;1335;0;0;0;0;5;0;3589;2;0;0;0;0;0;6;0;1139;0;0;0;0;0;0;7;0;1637;0;0;0;0;8;0;1663;0;0;0;0;9;0;844;0;0;0;0
18.11.17;16:35:00;1;399;7207;0;2;0;1702;0;0;0;0;3;0;995;0;0;148;7;4;0;1335;0;0;0;0;5;0;3589;2;0;0;0;0;0;6;0;1139;0;0;0;0;0;0;7;0;1637;0;0;0;0;8;0;1663;0;0;0;0;9;0;844;0;0;0;0
18.11.17;16:30:00;1;390;7172;0;2;0;1702;6;0;270;10;3;0;995;6;0;299;13;4;0;1335;0;0;8;1;5;0;3589;2;0;0;0;0;0;6;0;1139;0;0;0;0;0;0;7;0;1637;0;0;0;0;8;0;1663;0;0;0;0;9;0;844;0;0;0;0
18.11.17;16:25:00;1;405;7140;0;2;0;1702;6;0;297;10;3;0;995;6;0;335;13;4;0;1335;2;0;81;9;5;0;3589;2;0;0;0;0;0;6;0;1139;0;0;0;0;0;0;7;0;1637;0;0;0;0;8;0;1663;0;0;0;0;9;0;844;0;0;0;0
18.11.17;16:20:00;1;413;7106;0;2;0;1702;6;0;311;10;3;0;995;6;0;370;13;4;0;1335;1;0;97;9;5;0;3589;2;0;0;56;55;6;6;0;1139;0;0;0;0;0;0;7;0;1637;0;0;0;0;8;0;1663;0;0;0;0;9;0;844;0;0;0;0
18.11.17;16:15:00;1;415;7072;0;2;0;1702;6;0;299;10;3;0;995;6;0;337;13;4;0;1335;1;0;83;9;5;0;3589;2;0;0;0;0;0;6;0;1139;0;0;0;0;0;0;7;0;1637;0;0;0;0;8;0;1663;0;0;0;0;9;0;844;0;0;0;0
18.11.17;16:10:00;1;403;7037;0;2;0;1702;6;0;317;10;3;0;995;6;0;380;13;4;0;1335;1;0;100;9;5;0;3589;2;0;3;234;232;15;6;0;1139;0;0;0;0;0;0;7;0;1637;0;0;0;0;8;0;1663;0;0;0;0;9;0;844;0;0;0;0
18.11.17;16:05:00;1;362;7004;0;2;0;1702;6;0;337;10;3;0;995;6;0;411;14;4;0;1335;1;0;123;10;5;0;3589;2;1;3;332;354;21;6;0;1139;0;0;0;0;0;0;7;0;1637;0;0;85;4;8;0;1663;0;0;86;4;9;0;844;0;0;221;8
18.11.17;16:00:00;1;489;6975;0;2;0;1702;6;0;367;10;3;0;995;3;4;405;14;4;0;1335;1;0;166;10;5;0;3589;23;0;8;404;506;21;6;0;1139;0;0;0;0;0;0;7;0;1637;6;0;319;14;8;0;1663;6;0;325;14;9;0;844;6;0;342;10
18.11.17;15:55:00;1;498;6934;0;2;0;1702;6;0;386;11;3;0;995;6;2;467;14;4;0;1335;1;0;199;10;5;10;3589;1;4;10;404;634;22;6;0;1139;0;0;0;0;0;0;7;0;1637;6;0;385;14;8;0;1663;6;0;384;14;9;0;844;6;0;402;10
18.11.17;15:50:00;1;319;6895;0;2;0;1702;6;0;405;11;3;2;995;6;8;468;14;4;0;1335;1;0;223;11;5;59;3589;1;28;26;381;607;22;6;0;1139;0;0;0;0;0;0;7;0;1637;6;3;410;14;8;1;1663;6;1;432;14;9;1;844;6;3;446;10
18.11.17;15:45:00;1;336;6868;0;2;0;1702;6;0;413;11;3;2;995;6;4;503;14;4;0;1335;3;0;215;11;5;77;3584;4;41;38;376;601;22;6;0;1139;0;0;0;0;0;0;7;0;1637;6;1;451;14;8;1;1663;6;3;436;14;9;1;844;6;2;498;10
18.11.17;15:40:00;1;321;6840;0;2;0;1702;6;0;409;11;3;1;995;6;4;498;14;4;0;1335;3;0;213;11;5;22;3578;1;8;13;428;685;22;6;0;1139;0;0;0;0;0;0;7;0;1637;6;3;428;15;8;0;1663;6;1;448;14;9;2;844;6;3;464;10
18.11.17;15:35:00;1;288;6813;0;2;2;1702;6;5;409;11;3;0;995;6;0;514;14;4;0;1335;3;0;213;11;5;93;3576;4;41;38;410;660;23;6;0;1139;0;0;0;0;0;0;7;2;1637;6;3;461;15;8;3;1662;6;6;444;14;9;1;844;6;1;509;10
18.11.17;15:30:00;1;289;6789;0;2;10;1702;4;18;404;12;3;3;995;3;13;498;14;4;1;1335;3;1;199;11;5;117;3568;4;59;49;410;660;23;6;0;1139;0;0;0;0;0;0;7;2;1637;6;6;473;15;8;0;1662;6;0;496;14;9;1;844;4;7;493;10
18.11.17;15:25:00;1;301;6765;0;2;5;1701;6;10;416;12;3;1;994;6;6;523;14;4;2;1334;3;2;199;11;5;127;3559;4;59;50;410;659;23;6;0;1139;0;0;0;0;0;0;7;0;1637;6;0;483;15;8;1;1662;4;6;477;15;9;4;843;3;8;505;10
18.11.17;15:20:00;1;264;6739;0;2;23;1700;6;35;393;12;3;2;994;6;8;528;14;4;5;1334;3;5;199;11;5;144;3548;4;69;63;410;659;23;6;0;1139;0;0;0;0;0;0;7;5;1637;3;15;461;15;8;3;1662;6;8;484;15;9;3;843;6;10;508;11
18.11.17;15:15:00;1;334;6720;0;2;54;1699;4;81;373;12;3;11;994;6;22;496;15;4;13;1334;3;13;198;11;5;176;3536;4;88;77;410;659;23;6;62;1139;0;52;16;297;185;13;7;16;1636;6;22;450;15;8;15;1662;6;23;448;15;9;7;843;6;14;505;11
18.11.17;15:10:00;1;440;6691;0;2;80;1694;4;105;369;12;3;5;993;6;11;542;15;4;38;1333;3;40;198;11;5;220;3521;4;111;96;410;659;23;6;126;1139;4;122;41;496;309;22;7;51;1635;4;81;395;16;8;56;1661;4;85;400;15;9;3;842;6;7;549;11
18.11.17;15:05:00;1;436;6654;0;2;114;1688;4;142;378;12;3;54;993;6;84;487;15;4;65;1330;3;67;198;11;5;286;3503;4;149;130;410;659;23;6;167;1139;4;158;59;497;309;21;7;102;1631;4;125;442;16;8;89;1656;4;126;443;15;9;14;842;6;22;531;11
18.11.17;15:00:00;1;457;6618;0;2;122;1678;4;152;369;13;3;70;988;4;107;477;15;4;77;1324;3;80;200;11;5;308;3478;4;159;139;410;660;23;6;33;1139;4;18;6;421;379;13;7;97;1622;4;139;466;16;8;104;1648;4;135;477;15;9;0;841;6;0;590;11
18.11.17;14:55:00;1;473;6580;0;2;127;1668;4;154;376;13;3;71;983;4;110;483;15;4;81;1318;3;84;199;12;5;310;3452;4;160;139;410;659;23;6;29;1139;0;25;8;259;120;11;7;110;1614;4;139;466;16;8;100;1640;4;135;473;15;9;18;841;3;26;537;11
18.11.17;14:50:00;1;485;6540;0;2;126;1657;4;155;385;13;3;69;977;4;107;487;15;4;78;1311;3;81;199;12;5;309;3426;4;165;137;410;660;23;6;182;1139;4;144;44;586;297;23;7;102;1605;4;138;437;16;8;102;1631;4;138;453;15;9;9;839;6;13;564;11
18.11.17;14:45:00;1;481;6500;0;2;130;1647;4;158;368;13;3;74;971;4;110;470;15;4;78;1305;3;81;205;12;5;330;3401;4;173;149;405;660;23;6;195;1139;4;128;42;585;314;23;7;114;1596;4;149;425;16;8;118;1623;4;149;423;15;9;38;838;6;52;502;11
18.11.17;14:40:00;1;470;6462;0;2;169;1636;4;196;377;13;3;97;965;4;137;482;15;4;119;1298;5;123;229;12;5;400;3373;4;216;182;392;637;23;6;294;1139;4;192;114;592;518;22;7;164;1587;4;194;432;16;8;163;1613;4;192;410;15;9;84;836;4;112;480;12
18.11.17;14:35:00;1;430;6425;0;2;214;1622;4;244;386;13;3;126;957;4;165;501;15;4;163;1288;5;169;230;12;5;497;3339;4;268;223;410;620;23;6;369;1139;4;235;149;595;568;22;7;237;1573;4;256;452;16;8;222;1600;4;256;441;15;9;117;829;4;147;511;12
18.11.17;14:30:00;1;443;6389;0;2;231;1604;4;264;383;13;3;139;946;4;177;506;16;4;183;1275;5;190;229;12;5;528;3298;4;292;241;412;620;23;6;330;1139;4;205;136;496;466;18;7;248;1554;4;277;446;16;8;243;1582;4;278;462;15;9;128;819;4;158;518;12
18.11.17;14:25:00;1;539;6351;0;2;246;1585;4;277;389;13;3;148;935;4;189;489;16;4;195;1260;5;202;233;12;5;554;3253;4;296;255;409;630;23;6;415;1139;4;240;160;599;561;22;7;235;1533;4;288;464;16;8;254;1561;4;290;466;15;9;133;808;4;163;519;12
18.11.17;14:20:00;1;872;6307;0;2;268;1565;4;300;385;13;3;161;922;4;198;479;16;4;215;1244;5;223;232;12;5;608;3207;4;314;269;401;658;23;6;449;1139;4;274;184;595;557;22;7;284;1513;4;318;470;16;8;286;1540;4;315;453;15;9;154;797;4;182;506;12
18.11.17;14:15:00;1;759;6241;0;2;284;1542;4;318;389;13;3;173;909;4;211;492;16;4;230;1226;5;240;234;12;5;618;3157;4;323;281;399;638;23;6;469;1139;4;305;206;590;565;22;7;287;1489;4;327;481;16;8;290;1516;4;333;453;15;9;160;784;4;186;515;12
18.11.17;14:10:00;1;745;6175;0;2;286;1519;4;318;390;13;3;173;894;4;212;491;16;4;230;1206;5;240;233;12;5;626;3104;4;330;282;406;650;23;6;467;1139;4;329;221;590;561;22;7;292;1466;4;328;469;16;8;294;1492;4;324;451;15;9;155;771;4;183;506;12
18.11.17;14:05:00;1;875;6097;0;2;287;1495;4;318;384;13;3;176;880;4;215;491;16;4;232;1187;5;242;232;12;5;626;3053;4;327;279;407;663;23;6;476;1139;4;292;199;591;569;22;7;305;1441;4;327;476;16;8;291;1467;4;329;450;15;9;161;758;4;187;504;12
18.11.17;14:00:00;1;1331;6029;0;2;312;1471;4;345;393;13;3;191;865;4;230;495;16;4;256;1168;5;267;234;12;5;675;2999;4;356;304;414;667;23;6;507;1139;4;301;210;600;563;22;7;310;1416;4;350;470;16;8;318;1443;4;350;469;15;9;172;745;4;201;514;12
18.11.17;13:55:00;1;509;5923;0;2;306;1445;4;339;398;13;3;186;849;4;227;506;16;4;252;1147;5;262;233;12;5;674;2942;4;345;297;424;663;23;6;499;1139;4;335;229;592;569;22;7;311;1390;4;350;465;16;8;312;1417;4;352;485;15;9;171;730;4;200;516;12
18.11.17;13:50:00;1;511;5881;0;2;310;1419;4;344;396;13;3;188;834;4;227;512;16;4;254;1126;5;265;233;12;5;686;2887;4;356;303;405;689;23;6;421;1139;4;275;187;493;470;18;7;318;1364;4;351;457;16;8;309;1391;4;346;481;15;9;169;716;4;197;507;12
18.11.17;13:45:00;1;493;5838;0;2;361;1394;4;395;406;13;3;226;818;4;264;503;16;4;303;1104;5;316;237;12;5;801;2829;4;427;354;417;655;23;6;595;1139;4;351;249;603;567;22;7;387;1338;4;412;465;16;8;372;1365;4;412;479;15;9;201;702;4;231;527;12
18.11.17;13:40:00;1;444;5800;0;2;365;1364;4;401;406;13;3;226;799;4;269;509;16;4;307;1079;5;320;239;11;5;801;2762;4;427;360;417;659;23;6;387;1139;4;252;161;630;548;21;7;380;1306;4;426;483;16;8;391;1335;4;432;473;15;9;213;685;4;243;518;12
18.11.17;13:35:00;1;442;5763;0;2;283;1334;4;315;390;13;3;171;781;4;211;515;16;4;226;1054;5;236;235;11;5;609;2697;4;320;278;408;652;23;6;78;1139;1;52;34;415;396;17;7;299;1274;4;341;479;15;8;313;1302;4;352;476;15;9;173;668;4;200;520;12
18.11.17;13:30:00;1;435;5726;0;2;230;1309;4;263;391;13;3;140;766;4;177;498;16;4;179;1034;5;187;229;11;5;512;2647;4;273;233;408;625;23;6;256;1139;4;164;111;393;373;14;7;216;1249;4;258;458;15;8;223;1275;4;258;475;15;9;118;653;4;146;520;12